Details for Ryanair at ESKN




Go Back


Latest METAR
Local Time

ESKN 181250Z 24013KT CAVOK 23/12 Q1010
18/09/2018, 15:17:01

Description
Results
Ryanair Logo
Number of Pilots based at ESKN
0 Pilots Based here
Number of Ryanair Flights Departed from ESKN
1 Flights Departed
Number of Ryanair Flights Arrived at ESKN
1 Flights Arrived
Number of Ryanair Schedules Departing from ESKN
54 Schedules
Number of Ryanair Schedules Arriving at ESKN
54 Schedules
Number of Ryanair Schedules Departing from ESKN availible today
18 Schedules Today
Number of Ryanair Schedules Arriving at ESKN availible today
18 Schedules Today
Average Landing Rate at ESKN
-121 fpm
Ryanair Average Landing Rate at ESKN
-121 fpm
Total Fuel Purchased at ESKN by Ryanair
7,769.13 kgs / 17,127.82 lbs

Pilots Based at ESKN


Pilot ID
Pilot Name
Pilot Rank
No. of Flights
No. of Flying Hours
There are no pilots assigned to this hub!   Will you be the first?
Content